UPS8 EGKK-KBOS

Flight info

Callsign UPS8
Flight time N/A
Altitude 32000
Route DCT NOVMA L620 SAM N19 ADKIK DCT PEWBI DCT MOPAT DCT RESNO/M085F340 NATE LOMSI/N0500F360 DCT TOPPS DCT EURRO OOSHN5
Aircraft B748/H-SDE3FGHIM1M2RWXY/LB1

Departure

Time 2026-04-07 15:47
Airport London Gatwick Airport (EGKK)

Arrival

Time N/A
Airport Boston Logan International Airport (KBOS)
Time Latitude Longitude Altitude Speed Heading
2026-04-07 15:25 51.15376 -0.19554 211 ft 0 kts 77°
2026-04-07 15:34 51.15373 -0.19572 219 ft 3 kts 77°
2026-04-07 15:34 51.15369 -0.19602 214 ft 3 kts 84°
2026-04-07 15:35 51.15370 -0.19635 213 ft 3 kts 121°
2026-04-07 15:35 51.15383 -0.19661 218 ft 3 kts 157°
2026-04-07 15:35 51.15388 -0.19665 217 ft 0 kts 167°
2026-04-07 15:35 51.15387 -0.19665 217 ft 0 kts 167°
2026-04-07 15:36 51.15387 -0.19664 217 ft 0 kts 167°
2026-04-07 15:36 51.15386 -0.19664 217 ft 0 kts 167°
2026-04-07 15:36 51.15354 -0.19652 222 ft 9 kts 166°
2026-04-07 15:36 51.15258 -0.19614 215 ft 18 kts 167°
2026-04-07 15:37 51.15123 -0.19580 215 ft 20 kts 170°
2026-04-07 15:37 51.15086 -0.19570 217 ft 1 kts 172°
2026-04-07 15:37 51.15052 -0.19565 217 ft 7 kts 178°
2026-04-07 15:37 51.15024 -0.19576 221 ft 2 kts 206°
2026-04-07 15:38 51.14997 -0.19631 211 ft 11 kts 248°
2026-04-07 15:38 51.14974 -0.19837 218 ft 23 kts 259°
2026-04-07 15:38 51.14939 -0.20111 217 ft 27 kts 257°
2026-04-07 15:38 51.14894 -0.20404 216 ft 27 kts 256°
2026-04-07 15:39 51.14858 -0.20689 214 ft 26 kts 258°
2026-04-07 15:39 51.14821 -0.20959 214 ft 24 kts 257°
2026-04-07 15:39 51.14790 -0.21141 216 ft 11 kts 253°
2026-04-07 15:39 51.14770 -0.21258 214 ft 9 kts 257°
2026-04-07 15:40 51.14763 -0.21317 212 ft 0 kts 260°
2026-04-07 15:40 51.14761 -0.21328 213 ft 7 kts 253°
2026-04-07 15:40 51.14735 -0.21381 220 ft 3 kts 210°
2026-04-07 15:40 51.14718 -0.21388 216 ft 1 kts 193°
2026-04-07 15:41 51.14718 -0.21389 216 ft 0 kts 193°
2026-04-07 15:42 51.14677 -0.21374 216 ft 0 kts 157°
2026-04-07 15:43 51.14675 -0.21373 216 ft 0 kts 157°
2026-04-07 15:43 51.14674 -0.21372 216 ft 0 kts 157°
2026-04-07 15:43 51.14646 -0.21343 220 ft 9 kts 149°
2026-04-07 15:43 51.14642 -0.21339 220 ft 0 kts 149°
2026-04-07 15:44 51.14623 -0.21330 220 ft 11 kts 162°
2026-04-07 15:44 51.14532 -0.21240 217 ft 16 kts 124°
2026-04-07 15:44 51.14526 -0.21065 219 ft 14 kts 76°
2026-04-07 15:44 51.14532 -0.21030 216 ft 0 kts 77°
2026-04-07 15:46 51.14549 -0.20908 217 ft 47 kts 77°
2026-04-07 15:46 51.14682 -0.19910 215 ft 134 kts 75°
2026-04-07 15:46 51.14943 -0.18087 265 ft 194 kts 79°
2026-04-07 15:47 51.15589 -0.13028 1775 ft 200 kts 83°
2026-04-07 15:47 51.15693 -0.11563 2073 ft 204 kts 92°
2026-04-07 15:47 51.15506 -0.09309 2644 ft 203 kts 107°
2026-04-07 15:47 51.14649 -0.06630 3291 ft 214 kts 130°
2026-04-07 15:48 51.13532 -0.05000 3654 ft 226 kts 147°
2026-04-07 15:48 51.11988 -0.04204 3977 ft 240 kts 174°
2026-04-07 15:48 51.10365 -0.04541 4758 ft 234 kts 195°
2026-04-07 15:48 51.09370 -0.05272 5233 ft 234 kts 209°
2026-04-07 15:49 51.08045 -0.06894 5522 ft 248 kts 221°
2026-04-07 15:49 51.06898 -0.09026 5915 ft 256 kts 232°
2026-04-07 15:49 51.06008 -0.11394 6647 ft 247 kts 240°
2026-04-07 15:49 51.05320 -0.13852 7375 ft 241 kts 244°
2026-04-07 15:50 51.04646 -0.16320 7726 ft 250 kts 243°
2026-04-07 15:50 51.03904 -0.18961 7794 ft 273 kts 243°
2026-04-07 15:50 51.03122 -0.21798 8035 ft 293 kts 244°
2026-04-07 15:50 51.02240 -0.25041 7462 ft 353 kts 244°
2026-04-07 15:51 51.01189 -0.28965 7072 ft 412 kts 245°
2026-04-07 15:51 51.00097 -0.33178 8645 ft 398 kts 246°
2026-04-07 15:51 50.99159 -0.36946 11535 ft 351 kts 246°
2026-04-07 15:51 50.98239 -0.40612 11745 ft 371 kts 245°
2026-04-07 15:52 50.97221 -0.44541 11357 ft 397 kts 245°
2026-04-07 15:52 50.96141 -0.48649 11327 ft 411 kts 245°
2026-04-07 15:52 50.95018 -0.52908 11308 ft 423 kts 245°
2026-04-07 15:52 50.93867 -0.57265 11322 ft 433 kts 245°
2026-04-07 15:53 50.92684 -0.61726 11302 ft 443 kts 245°
2026-04-07 15:53 50.91475 -0.66273 11320 ft 451 kts 245°
2026-04-07 15:53 50.90246 -0.70878 11488 ft 455 kts 245°
2026-04-07 15:53 50.89014 -0.75494 11851 ft 454 kts 245°
2026-04-07 15:54 50.87792 -0.80074 12201 ft 453 kts 245°
2026-04-07 15:54 50.86564 -0.84675 12541 ft 452 kts 245°
2026-04-07 15:54 50.85343 -0.89243 12904 ft 451 kts 245°
2026-04-07 15:54 50.84122 -0.93820 13268 ft 450 kts 245°
2026-04-07 15:55 50.82906 -0.98372 13627 ft 449 kts 244°
2026-04-07 15:55 50.81687 -1.02932 14000 ft 448 kts 244°
2026-04-07 15:55 50.80492 -1.07401 14316 ft 447 kts 244°
2026-04-07 15:55 50.79280 -1.11935 14651 ft 447 kts 244°
2026-04-07 15:56 50.78079 -1.16434 14729 ft 442 kts 244°
2026-04-07 15:56 50.76893 -1.20881 14691 ft 438 kts 244°
2026-04-07 15:56 50.75718 -1.25296 14678 ft 434 kts 244°
2026-04-07 15:56 50.74552 -1.29678 14683 ft 431 kts 244°
2026-04-07 15:57 50.73419 -1.34047 14688 ft 429 kts 247°
2026-04-07 15:57 50.72524 -1.38541 14635 ft 429 kts 250°
2026-04-07 15:57 50.71705 -1.43021 14900 ft 419 kts 251°
2026-04-07 15:57 50.70952 -1.47427 15022 ft 415 kts 252°
2026-04-07 15:58 50.70306 -1.51884 14816 ft 422 kts 260°
2026-04-07 15:58 50.70239 -1.56546 14608 ft 429 kts 269°
2026-04-07 15:58 50.70493 -1.61258 14556 ft 430 kts 273°
2026-04-07 15:58 50.70869 -1.65931 14562 ft 429 kts 274°
2026-04-07 15:59 50.71287 -1.70584 14582 ft 427 kts 275°
2026-04-07 15:59 50.71725 -1.75197 14615 ft 424 kts 275°
2026-04-07 15:59 50.72146 -1.79718 15460 ft 422 kts 275°
2026-04-07 15:59 50.72581 -1.84279 16746 ft 417 kts 275°
2026-04-07 16:00 50.73037 -1.88728 17957 ft 405 kts 276°
2026-04-07 16:00 50.73504 -1.93085 18551 ft 408 kts 276°
2026-04-07 16:00 50.73998 -1.97625 18580 ft 426 kts 276°
2026-04-07 16:00 50.74509 -2.02310 18980 ft 442 kts 276°
2026-04-07 16:01 50.75032 -2.07202 19159 ft 464 kts 276°
2026-04-07 16:01 50.75566 -2.12367 19169 ft 489 kts 276°
2026-04-07 16:01 50.76091 -2.17804 19166 ft 513 kts 275°
2026-04-07 16:01 50.76616 -2.23495 19164 ft 535 kts 275°
2026-04-07 16:02 50.77147 -2.29417 19161 ft 551 kts 275°
2026-04-07 16:02 50.77672 -2.35310 19138 ft 529 kts 275°
2026-04-07 16:02 50.78176 -2.40929 19132 ft 505 kts 275°
2026-04-07 16:02 50.78666 -2.46313 19120 ft 483 kts 275°
2026-04-07 16:03 50.79141 -2.51463 19122 ft 464 kts 275°
2026-04-07 16:03 50.79608 -2.56492 19120 ft 464 kts 275°
2026-04-07 16:03 50.80077 -2.61544 19117 ft 464 kts 275°
2026-04-07 16:03 50.80545 -2.66601 19120 ft 466 kts 275°
2026-04-07 16:04 50.81010 -2.71659 19118 ft 465 kts 275°
2026-04-07 16:04 50.81474 -2.76660 19113 ft 456 kts 275°
2026-04-07 16:04 50.81937 -2.81642 19119 ft 459 kts 275°
2026-04-07 16:04 50.82399 -2.86617 19120 ft 458 kts 275°
2026-04-07 16:05 50.82863 -2.91609 19119 ft 458 kts 275°
2026-04-07 16:05 50.83328 -2.96597 19132 ft 460 kts 275°
2026-04-07 16:05 50.83794 -3.01602 19113 ft 457 kts 275°
2026-04-07 16:05 50.84257 -3.06584 19121 ft 459 kts 275°
2026-04-07 16:06 50.84723 -3.11576 19123 ft 459 kts 276°
2026-04-07 16:06 50.85337 -3.16531 19126 ft 460 kts 279°
2026-04-07 16:06 50.86058 -3.21469 19129 ft 461 kts 280°
2026-04-07 16:06 50.86826 -3.26399 19133 ft 461 kts 280°
2026-04-07 16:07 50.87613 -3.31331 19134 ft 462 kts 281°
2026-04-07 16:07 50.88406 -3.36245 19136 ft 461 kts 281°
2026-04-07 16:07 50.89202 -3.41147 19136 ft 461 kts 281°
2026-04-07 16:07 50.90128 -3.46037 19131 ft 465 kts 289°
2026-04-07 16:08 50.91391 -3.50740 19133 ft 466 kts 289°
2026-04-07 16:08 50.92665 -3.55500 19345 ft 470 kts 289°
2026-04-07 16:08 50.93964 -3.60256 19989 ft 473 kts 290°
2026-04-07 16:08 50.95278 -3.65075 20569 ft 476 kts 289°
2026-04-07 16:09 50.96580 -3.69915 21130 ft 479 kts 289°
2026-04-07 16:09 50.97890 -3.74806 21652 ft 483 kts 289°
2026-04-07 16:09 50.99215 -3.79729 22139 ft 487 kts 289°
2026-04-07 16:09 51.00546 -3.84680 22654 ft 490 kts 289°
2026-04-07 16:10 51.01888 -3.89694 23124 ft 494 kts 289°
2026-04-07 16:10 51.03229 -3.94726 23581 ft 497 kts 289°
2026-04-07 16:10 51.04581 -3.99805 23976 ft 500 kts 289°
2026-04-07 16:10 51.05912 -4.04807 24356 ft 503 kts 289°
2026-04-07 16:11 51.07301 -4.10041 24759 ft 505 kts 289°
2026-04-07 16:11 51.08663 -4.15188 25053 ft 508 kts 289°
2026-04-07 16:11 51.10038 -4.20396 25067 ft 507 kts 289°
2026-04-07 16:11 51.11398 -4.25555 25067 ft 506 kts 289°
2026-04-07 16:12 51.12753 -4.30712 25069 ft 505 kts 289°
2026-04-07 16:12 51.14108 -4.35881 25066 ft 505 kts 289°
2026-04-07 16:12 51.15458 -4.41041 25068 ft 505 kts 289°
2026-04-07 16:12 51.16809 -4.46214 25068 ft 506 kts 288°
2026-04-07 16:13 51.18155 -4.51384 25071 ft 506 kts 288°
2026-04-07 16:13 51.19502 -4.56566 25070 ft 506 kts 288°
2026-04-07 16:13 51.20845 -4.61748 25075 ft 506 kts 288°
2026-04-07 16:13 51.22188 -4.66940 25079 ft 506 kts 288°
2026-04-07 16:14 51.23530 -4.72138 25084 ft 506 kts 288°
2026-04-07 16:14 51.24866 -4.77327 25085 ft 506 kts 288°
2026-04-07 16:14 51.26203 -4.82533 25082 ft 506 kts 288°
2026-04-07 16:14 51.27536 -4.87735 25083 ft 506 kts 288°
2026-04-07 16:15 51.28867 -4.92939 25084 ft 506 kts 288°
2026-04-07 16:15 51.30179 -4.98081 25081 ft 506 kts 288°
2026-04-07 16:15 51.31353 -5.03355 25085 ft 501 kts 279°
2026-04-07 16:15 51.32002 -5.08805 25083 ft 498 kts 275°
2026-04-07 16:16 51.32536 -5.14275 25086 ft 498 kts 274°
2026-04-07 16:16 51.33058 -5.19754 25083 ft 498 kts 274°
2026-04-07 16:16 51.33586 -5.25220 25081 ft 499 kts 274°
2026-04-07 16:16 51.34122 -5.30731 25346 ft 502 kts 274°
2026-04-07 16:17 51.34651 -5.36228 25907 ft 500 kts 274°
2026-04-07 16:17 51.35173 -5.41713 26491 ft 497 kts 274°
2026-04-07 16:17 51.35689 -5.47173 27064 ft 495 kts 274°
2026-04-07 16:17 51.36201 -5.52593 27629 ft 493 kts 274°
2026-04-07 16:18 51.36711 -5.58014 28171 ft 492 kts 274°
2026-04-07 16:18 51.37214 -5.63399 28724 ft 490 kts 274°
2026-04-07 16:18 51.37715 -5.68807 29278 ft 488 kts 274°
2026-04-07 16:18 51.38213 -5.74190 29821 ft 487 kts 274°
2026-04-07 16:19 51.38706 -5.79556 30070 ft 489 kts 274°
2026-04-07 16:19 51.39199 -5.84931 30060 ft 485 kts 274°
2026-04-07 16:19 51.40167 -5.95604 30059 ft 484 kts 273°
2026-04-07 16:20 51.41119 -6.06207 30065 ft 484 kts 273°
2026-04-07 16:20 51.42068 -6.16882 30066 ft 484 kts 273°
2026-04-07 16:21 51.43006 -6.27544 30071 ft 484 kts 273°
2026-04-07 16:21 51.43935 -6.38218 30074 ft 483 kts 272°
2026-04-07 16:22 51.44854 -6.48906 30373 ft 485 kts 273°
2026-04-07 16:22 51.45312 -6.54261 30852 ft 483 kts 273°
2026-04-07 16:22 51.45765 -6.59585 31301 ft 481 kts 273°
2026-04-07 16:23 51.46212 -6.64897 31712 ft 480 kts 273°
2026-04-07 16:23 51.46657 -6.70204 32116 ft 479 kts 273°
2026-04-07 16:23 51.47100 -6.75501 32489 ft 479 kts 273°
2026-04-07 16:23 51.47538 -6.80774 32861 ft 478 kts 273°
2026-04-07 16:24 51.47974 -6.86067 33224 ft 477 kts 273°
2026-04-07 16:24 51.48407 -6.91338 33578 ft 476 kts 273°
2026-04-07 16:24 51.48835 -6.96589 33921 ft 475 kts 273°
2026-04-07 16:24 51.49262 -7.01851 34222 ft 475 kts 273°
2026-04-07 16:25 51.49718 -7.07076 34499 ft 476 kts 278°
2026-04-07 16:25 51.50634 -7.12218 34817 ft 480 kts 288°
2026-04-07 16:25 51.51917 -7.17168 35063 ft 481 kts 288°
2026-04-07 16:25 51.53217 -7.22122 35062 ft 482 kts 288°
2026-04-07 16:26 51.55816 -7.32036 35063 ft 480 kts 288°
2026-04-07 16:26 51.58389 -7.41933 35060 ft 480 kts 288°
2026-04-07 16:27 51.60961 -7.51842 35066 ft 480 kts 288°
2026-04-07 16:27 51.63522 -7.61770 35067 ft 480 kts 288°
2026-04-07 16:28 51.66077 -7.71710 35073 ft 480 kts 288°
2026-04-07 16:28 51.68621 -7.81653 35077 ft 480 kts 288°
2026-04-07 16:29 51.71155 -7.91602 35075 ft 480 kts 287°
2026-04-07 16:29 51.73681 -8.01565 35076 ft 480 kts 287°
2026-04-07 16:30 51.75775 -8.09853 35078 ft 480 kts 287°
2026-04-07 16:30 51.78278 -8.19806 35082 ft 480 kts 287°
2026-04-07 16:31 51.80741 -8.29642 35081 ft 480 kts 287°
2026-04-07 16:31 51.83240 -8.39665 35079 ft 480 kts 287°
2026-04-07 16:32 51.85717 -8.49646 35079 ft 480 kts 287°
2026-04-07 16:32 51.88194 -8.59675 35073 ft 479 kts 286°
2026-04-07 16:33 51.90661 -8.69700 35076 ft 479 kts 286°
2026-04-07 16:33 51.93100 -8.79663 35081 ft 479 kts 286°
2026-04-07 16:34 51.95547 -8.89707 35077 ft 479 kts 286°
2026-04-07 16:34 51.97985 -8.99756 35079 ft 479 kts 286°
2026-04-07 16:35 52.00411 -9.09802 35075 ft 478 kts 285°
2026-04-07 16:35 52.02830 -9.19866 35078 ft 478 kts 284°
2026-04-07 16:36 52.05091 -9.30017 35079 ft 478 kts 285°
2026-04-07 16:36 52.07579 -9.40069 35078 ft 479 kts 285°
2026-04-07 16:37 52.09929 -9.50193 35079 ft 478 kts 285°
2026-04-07 16:37 52.12307 -9.60165 35086 ft 479 kts 285°
2026-04-07 16:38 52.14701 -9.70407 35080 ft 479 kts 284°
2026-04-07 16:38 52.17075 -9.80545 35077 ft 478 kts 284°
2026-04-07 16:39 52.19433 -9.90689 35029 ft 477 kts 284°
2026-04-07 16:39 52.21747 -10.00674 35064 ft 471 kts 284°
2026-04-07 16:40 52.24035 -10.10615 35071 ft 472 kts 284°
2026-04-07 16:40 52.26339 -10.20652 35080 ft 472 kts 284°
2026-04-07 16:41 52.28629 -10.30692 35071 ft 472 kts 283°
2026-04-07 16:41 52.30921 -10.40773 35081 ft 472 kts 283°
2026-04-07 16:42 52.33196 -10.50839 35084 ft 472 kts 283°
2026-04-07 16:42 52.35465 -10.60917 35083 ft 472 kts 283°
2026-04-07 16:43 52.37710 -10.70941 35088 ft 472 kts 283°
2026-04-07 16:43 52.39976 -10.81109 35084 ft 472 kts 283°
2026-04-07 16:44 52.42202 -10.91147 35089 ft 472 kts 283°
2026-04-07 16:44 52.44434 -11.01256 35096 ft 472 kts 283°
2026-04-07 16:45 52.46658 -11.11382 35091 ft 472 kts 283°
2026-04-07 16:45 52.48877 -11.21537 35094 ft 472 kts 283°
2026-04-07 16:46 52.51085 -11.31689 35101 ft 473 kts 283°
2026-04-07 16:46 52.53289 -11.41869 35101 ft 473 kts 282°
2026-04-07 16:47 52.55475 -11.52023 35105 ft 474 kts 282°
2026-04-07 16:47 52.57668 -11.62259 35106 ft 475 kts 282°
2026-04-07 16:48 52.59856 -11.72520 35112 ft 476 kts 282°
2026-04-07 16:49 52.63126 -11.87956 35119 ft 476 kts 282°
2026-04-07 16:49 52.65297 -11.98268 35115 ft 477 kts 282°
2026-04-07 16:50 52.67458 -12.08582 35116 ft 476 kts 282°
2026-04-07 16:50 52.69607 -12.18898 35122 ft 476 kts 282°
2026-04-07 16:51 52.71745 -12.29213 35127 ft 475 kts 282°
2026-04-07 16:51 52.73873 -12.39531 35125 ft 475 kts 282°
2026-04-07 16:52 52.75988 -12.49844 35130 ft 474 kts 282°
2026-04-07 16:52 52.78091 -12.60146 35129 ft 473 kts 282°
2026-04-07 16:53 52.80177 -12.70425 35130 ft 472 kts 283°
2026-04-07 16:53 52.82255 -12.80712 35134 ft 471 kts 283°
2026-04-07 16:54 52.84322 -12.91000 35130 ft 471 kts 283°
2026-04-07 16:54 52.86377 -13.01287 35133 ft 471 kts 283°
2026-04-07 16:55 52.88423 -13.11579 35133 ft 471 kts 283°
2026-04-07 16:55 52.90447 -13.21811 35133 ft 470 kts 284°
2026-04-07 16:56 52.92473 -13.32114 35132 ft 470 kts 284°
2026-04-07 16:56 52.94490 -13.42423 35128 ft 469 kts 284°
2026-04-07 16:57 52.96494 -13.52718 35131 ft 470 kts 284°
2026-04-07 16:57 52.98489 -13.63027 35138 ft 469 kts 284°
2026-04-07 16:58 53.00473 -13.73331 35139 ft 469 kts 285°
2026-04-07 16:58 53.02448 -13.83648 35143 ft 468 kts 285°
2026-04-07 16:59 53.04413 -13.93963 35142 ft 468 kts 285°
2026-04-07 16:59 53.06367 -14.04280 35147 ft 467 kts 285°
2026-04-07 17:00 53.08310 -14.14596 35147 ft 467 kts 285°
2026-04-07 17:00 53.10228 -14.24837 35147 ft 466 kts 285°
2026-04-07 17:01 53.12149 -14.35148 35144 ft 466 kts 285°
2026-04-07 17:01 53.14061 -14.45464 35149 ft 466 kts 285°
2026-04-07 17:02 53.15959 -14.55768 35148 ft 465 kts 285°
2026-04-07 17:02 53.17849 -14.66080 35150 ft 465 kts 285°
2026-04-07 17:03 53.19725 -14.76375 35149 ft 464 kts 285°
2026-04-07 17:03 53.21587 -14.86659 35147 ft 463 kts 285°
2026-04-07 17:04 53.23431 -14.96888 35154 ft 462 kts 285°
2026-04-07 17:04 53.25273 -15.07174 35151 ft 462 kts 285°
2026-04-07 17:05 53.27103 -15.17443 35154 ft 461 kts 285°
2026-04-07 17:05 53.28923 -15.27720 35153 ft 461 kts 285°
2026-04-07 17:06 53.30732 -15.37993 35157 ft 460 kts 285°
2026-04-07 17:06 53.32529 -15.48255 35154 ft 459 kts 285°
2026-04-07 17:07 53.34316 -15.58514 35153 ft 459 kts 285°
2026-04-07 17:07 53.36091 -15.68769 35150 ft 459 kts 285°
2026-04-07 17:08 53.37858 -15.79035 35149 ft 458 kts 285°
2026-04-07 17:08 53.39615 -15.89305 35152 ft 458 kts 285°
2026-04-07 17:09 53.41363 -15.99580 35150 ft 459 kts 285°
2026-04-07 17:09 53.43105 -16.09883 35146 ft 459 kts 285°
2026-04-07 17:10 53.44835 -16.20175 35150 ft 458 kts 285°
2026-04-07 17:10 53.46557 -16.30478 35147 ft 458 kts 285°
2026-04-07 17:11 53.48255 -16.40699 35144 ft 458 kts 285°
2026-04-07 17:11 53.49959 -16.51020 35149 ft 457 kts 285°
2026-04-07 17:12 53.51646 -16.61298 35148 ft 456 kts 285°
2026-04-07 17:12 53.53325 -16.71587 35145 ft 455 kts 285°
2026-04-07 17:13 53.54988 -16.81839 35142 ft 454 kts 285°
2026-04-07 17:13 53.56643 -16.92105 35137 ft 454 kts 285°
2026-04-07 17:14 53.58285 -17.02355 35137 ft 454 kts 285°
2026-04-07 17:14 53.59920 -17.12627 35139 ft 453 kts 285°
2026-04-07 17:15 53.61543 -17.22884 35138 ft 453 kts 285°
2026-04-07 17:15 53.63155 -17.33134 35135 ft 452 kts 285°
2026-04-07 17:16 53.64756 -17.43377 35135 ft 452 kts 285°
2026-04-07 17:16 53.66078 -17.51881 35136 ft 451 kts 285°
2026-04-07 17:17 53.67660 -17.62119 35132 ft 451 kts 285°
2026-04-07 17:17 53.69485 -17.74009 35127 ft 450 kts 285°
2026-04-07 17:18 53.70789 -17.82564 35126 ft 449 kts 285°
2026-04-07 17:18 53.72337 -17.92772 35125 ft 448 kts 285°
2026-04-07 17:19 53.73872 -18.02958 35122 ft 447 kts 285°
2026-04-07 17:19 53.75397 -18.13149 35121 ft 446 kts 285°
2026-04-07 17:20 53.76896 -18.23223 35116 ft 446 kts 285°
2026-04-07 17:20 53.78411 -18.33465 35117 ft 446 kts 285°
2026-04-07 17:21 53.79893 -18.43569 35113 ft 445 kts 285°
2026-04-07 17:21 53.81379 -18.53743 35110 ft 444 kts 285°
2026-04-07 17:22 53.82848 -18.63882 35109 ft 443 kts 285°
2026-04-07 17:22 53.84307 -18.74010 35106 ft 442 kts 285°
2026-04-07 17:23 53.85754 -18.84126 35103 ft 441 kts 285°
2026-04-07 17:23 53.87189 -18.94222 35098 ft 440 kts 285°
2026-04-07 17:24 53.88604 -19.04240 35095 ft 439 kts 285°
2026-04-07 17:24 53.90016 -19.14305 35090 ft 438 kts 285°
2026-04-07 17:25 53.91416 -19.24352 35088 ft 437 kts 284°
2026-04-07 17:25 53.92804 -19.34383 35083 ft 436 kts 284°
2026-04-07 17:26 53.94179 -19.44381 35082 ft 434 kts 284°
2026-04-07 17:26 53.95541 -19.54352 35073 ft 433 kts 284°
2026-04-07 17:27 53.96892 -19.64312 35073 ft 432 kts 284°
2026-04-07 17:27 53.98224 -19.74194 35067 ft 431 kts 284°
2026-04-07 17:28 53.99555 -19.84142 35066 ft 429 kts 284°
2026-04-07 17:28 54.00861 -19.93962 35059 ft 428 kts 284°
2026-04-07 17:29 54.02163 -20.03822 35060 ft 427 kts 284°
2026-04-07 17:29 54.03454 -20.13675 35054 ft 426 kts 284°
2026-04-07 17:30 54.04737 -20.23522 35051 ft 425 kts 284°
2026-04-07 17:30 54.06007 -20.33342 35050 ft 424 kts 284°
2026-04-07 17:31 54.07266 -20.43138 35040 ft 423 kts 283°
2026-04-07 17:31 54.08515 -20.52931 35038 ft 423 kts 283°
2026-04-07 17:32 54.09753 -20.62704 35035 ft 422 kts 283°
2026-04-07 17:32 54.10982 -20.72472 35033 ft 421 kts 283°
2026-04-07 17:33 54.12200 -20.82226 35027 ft 420 kts 283°
2026-04-07 17:33 54.13407 -20.91962 35021 ft 420 kts 283°
2026-04-07 17:34 54.14605 -21.01682 35008 ft 419 kts 283°
2026-04-07 17:34 54.15791 -21.11388 35006 ft 417 kts 283°
2026-04-07 17:35 54.16962 -21.21026 35005 ft 417 kts 283°
2026-04-07 17:35 54.18129 -21.30710 34997 ft 416 kts 282°
2026-04-07 17:36 54.19287 -21.40388 34994 ft 415 kts 282°
2026-04-07 17:36 54.20434 -21.50045 34991 ft 414 kts 282°
2026-04-07 17:37 54.21570 -21.59678 34986 ft 414 kts 282°
2026-04-07 17:37 54.22699 -21.69319 34983 ft 413 kts 282°
2026-04-07 17:38 54.23817 -21.78944 34972 ft 412 kts 282°
2026-04-07 17:38 54.24919 -21.88492 34968 ft 411 kts 282°
2026-04-07 17:39 54.26018 -21.98093 34961 ft 411 kts 282°
2026-04-07 17:39 54.27107 -22.07675 34966 ft 410 kts 282°
2026-04-07 17:40 54.28187 -22.17249 34958 ft 409 kts 282°
2026-04-07 17:40 54.29257 -22.26802 34954 ft 408 kts 281°
2026-04-07 17:41 54.30318 -22.36360 34940 ft 408 kts 281°
2026-04-07 17:41 54.31074 -22.43205 34938 ft 407 kts 281°
2026-04-07 17:43 54.31181 -22.44182 34942 ft 407 kts 281°
2026-04-07 17:43 54.32225 -22.53706 34927 ft 406 kts 281°
2026-04-07 17:44 54.33258 -22.63213 34910 ft 405 kts 281°
2026-04-07 17:44 54.34282 -22.72701 34905 ft 404 kts 281°
2026-04-07 17:45 54.34489 -22.74626 34896 ft 405 kts 281°
2026-04-07 17:46 54.35424 -22.83370 34909 ft 404 kts 281°
2026-04-07 17:46 54.36428 -22.92834 34902 ft 403 kts 281°
2026-04-07 17:47 54.37423 -23.02291 34896 ft 402 kts 280°
2026-04-07 17:47 54.38401 -23.11654 34894 ft 401 kts 280°
2026-04-07 17:48 54.39385 -23.21151 34885 ft 401 kts 280°
2026-04-07 17:48 54.40346 -23.30505 34879 ft 400 kts 280°
2026-04-07 17:49 54.41305 -23.39901 34868 ft 399 kts 280°
2026-04-07 17:49 54.42253 -23.49279 34862 ft 398 kts 279°
2026-04-07 17:50 54.43191 -23.58630 34856 ft 397 kts 279°
2026-04-07 17:50 54.44121 -23.67971 34849 ft 396 kts 279°
2026-04-07 17:51 54.45040 -23.77283 34838 ft 395 kts 279°
2026-04-07 17:51 54.45951 -23.86598 34833 ft 394 kts 279°
2026-04-07 17:52 54.46853 -23.95885 34825 ft 394 kts 279°
2026-04-07 17:52 54.47746 -24.05166 34816 ft 393 kts 279°
2026-04-07 17:53 54.48631 -24.14434 34814 ft 392 kts 278°
2026-04-07 17:53 54.49937 -24.28265 34798 ft 391 kts 278°
2026-04-07 17:54 54.50800 -24.37508 34791 ft 391 kts 278°
2026-04-07 17:54 54.51655 -24.46736 34780 ft 390 kts 278°
2026-04-07 17:55 54.52501 -24.55945 34781 ft 389 kts 278°
2026-04-07 17:55 54.53339 -24.65150 34767 ft 389 kts 278°
2026-04-07 17:56 54.54170 -24.74354 34765 ft 388 kts 277°
2026-04-07 17:56 54.54992 -24.83546 34755 ft 388 kts 277°
2026-04-07 17:57 54.55807 -24.92733 34748 ft 388 kts 277°
2026-04-07 17:57 54.56613 -25.01907 34740 ft 387 kts 277°
2026-04-07 17:58 54.57411 -25.11072 34736 ft 386 kts 277°
2026-04-07 17:58 54.58196 -25.20174 34726 ft 386 kts 277°
2026-04-07 17:59 54.58979 -25.29324 34716 ft 386 kts 276°
2026-04-07 17:59 54.59754 -25.38477 34715 ft 385 kts 276°
2026-04-07 18:00 54.60522 -25.47629 34705 ft 385 kts 276°
2026-04-07 18:00 54.61282 -25.56769 34692 ft 384 kts 276°
2026-04-07 18:01 54.62034 -25.65902 34685 ft 384 kts 276°
2026-04-07 18:01 54.62779 -25.75034 34678 ft 385 kts 276°
2026-04-07 18:02 54.63517 -25.84169 34675 ft 385 kts 275°
2026-04-07 18:02 54.64249 -25.93319 34666 ft 385 kts 275°
2026-04-07 18:03 54.64853 -26.00927 34664 ft 384 kts 275°
2026-04-07 18:03 54.65571 -26.10064 34654 ft 384 kts 275°
2026-04-07 18:04 54.66282 -26.19213 34644 ft 384 kts 275°
2026-04-07 18:04 54.66987 -26.28351 34638 ft 383 kts 275°
2026-04-07 18:05 54.67682 -26.37470 34638 ft 383 kts 275°
2026-04-07 18:05 54.68369 -26.46573 34631 ft 382 kts 274°
2026-04-07 18:06 54.69044 -26.55617 34625 ft 382 kts 274°
2026-04-07 18:06 54.69717 -26.64720 34616 ft 381 kts 274°
2026-04-07 18:07 54.70384 -26.73831 34604 ft 381 kts 274°
2026-04-07 18:07 54.71043 -26.82934 34610 ft 381 kts 274°
2026-04-07 18:08 54.71693 -26.92021 34613 ft 381 kts 274°
2026-04-07 18:08 54.72337 -27.01109 34610 ft 380 kts 274°
2026-04-07 18:09 54.72974 -27.10193 34604 ft 380 kts 273°
2026-04-07 18:09 54.73603 -27.19279 34599 ft 380 kts 273°
2026-04-07 18:10 54.74222 -27.28312 34590 ft 380 kts 273°
2026-04-07 18:10 54.74838 -27.37394 34584 ft 380 kts 273°
2026-04-07 18:11 54.75446 -27.46472 34579 ft 379 kts 272°
2026-04-07 18:11 54.76047 -27.55549 34579 ft 380 kts 272°
2026-04-07 18:12 54.76642 -27.64642 34571 ft 380 kts 272°
2026-04-07 18:12 54.77230 -27.73726 34568 ft 380 kts 272°
2026-04-07 18:13 54.77812 -27.82823 34567 ft 380 kts 272°
2026-04-07 18:13 54.78385 -27.91902 34555 ft 379 kts 271°
2026-04-07 18:14 54.78952 -28.00991 34561 ft 379 kts 271°
2026-04-07 18:14 54.79509 -28.10019 34559 ft 379 kts 271°
2026-04-07 18:15 54.80065 -28.19157 34542 ft 379 kts 271°
2026-04-07 18:15 54.80608 -28.28198 34544 ft 380 kts 271°
2026-04-07 18:16 54.81150 -28.37320 34541 ft 380 kts 270°
2026-04-07 18:16 54.81684 -28.46444 34537 ft 381 kts 270°
2026-04-07 18:17 54.82213 -28.55587 34535 ft 381 kts 270°
2026-04-07 18:17 54.82736 -28.64759 34535 ft 382 kts 270°
2026-04-07 18:18 54.83253 -28.73935 34523 ft 383 kts 270°
2026-04-07 18:18 54.83763 -28.83130 34525 ft 383 kts 270°
2026-04-07 18:19 54.84267 -28.92343 34522 ft 384 kts 269°
2026-04-07 18:19 54.84765 -29.01566 34509 ft 384 kts 269°
2026-04-07 18:20 54.85257 -29.10815 34514 ft 385 kts 269°
2026-04-07 18:20 54.85743 -29.20088 34508 ft 386 kts 269°
2026-04-07 18:21 54.86224 -29.29393 34504 ft 387 kts 269°
2026-04-07 18:21 54.86696 -29.38668 34495 ft 389 kts 269°
2026-04-07 18:22 54.87165 -29.48038 34492 ft 390 kts 269°
2026-04-07 18:22 54.87629 -29.57433 34491 ft 391 kts 268°
2026-04-07 18:23 54.88086 -29.66856 34487 ft 393 kts 268°
2026-04-07 18:23 54.88538 -29.76331 34485 ft 394 kts 268°
2026-04-07 18:24 54.88984 -29.85826 34481 ft 396 kts 268°
2026-04-07 18:24 54.89428 -29.95411 34473 ft 395 kts 268°
2026-04-07 18:25 54.89858 -30.04935 34471 ft 397 kts 268°
2026-04-07 18:25 54.90285 -30.14496 34461 ft 397 kts 268°
2026-04-07 18:26 54.90705 -30.24090 34467 ft 398 kts 268°
2026-04-07 18:26 54.91118 -30.33690 34459 ft 399 kts 268°
2026-04-07 18:27 54.91524 -30.43322 34458 ft 400 kts 268°
2026-04-07 18:27 54.91924 -30.52986 34461 ft 401 kts 268°
2026-04-07 18:28 54.92317 -30.62684 34449 ft 403 kts 267°
2026-04-07 18:28 54.92701 -30.72335 34447 ft 404 kts 267°
2026-04-07 18:29 54.93081 -30.82083 34441 ft 405 kts 267°
2026-04-07 18:29 54.93454 -30.91863 34441 ft 406 kts 267°
2026-04-07 18:30 54.93822 -31.01687 34431 ft 407 kts 267°
2026-04-07 18:30 54.94181 -31.11524 34430 ft 408 kts 267°
2026-04-07 18:31 54.94533 -31.21388 34425 ft 409 kts 267°
2026-04-07 18:31 54.94878 -31.31260 34423 ft 410 kts 266°
2026-04-07 18:32 54.95217 -31.41206 34419 ft 411 kts 266°
2026-04-07 18:32 54.95548 -31.51140 34420 ft 411 kts 266°
2026-04-07 18:33 54.95871 -31.61095 34421 ft 412 kts 266°
2026-04-07 18:33 54.96186 -31.71072 34410 ft 414 kts 266°
2026-04-07 18:34 54.96494 -31.81076 34401 ft 414 kts 266°
2026-04-07 18:34 54.96793 -31.91040 34403 ft 415 kts 266°
2026-04-07 18:35 54.97086 -32.01092 34402 ft 416 kts 266°
2026-04-07 18:35 54.97372 -32.11169 34399 ft 417 kts 266°
2026-04-07 18:36 54.97649 -32.21255 34393 ft 418 kts 266°
2026-04-07 18:36 54.97918 -32.31373 34392 ft 419 kts 266°
2026-04-07 18:37 54.98180 -32.41494 34384 ft 419 kts 266°
2026-04-07 18:37 54.98434 -32.51665 34375 ft 420 kts 266°
2026-04-07 18:38 54.98680 -32.61849 34382 ft 421 kts 266°
2026-04-07 18:38 54.98918 -32.72060 34381 ft 422 kts 266°
2026-04-07 18:39 54.99148 -32.82290 34378 ft 423 kts 266°
2026-04-07 18:39 54.99368 -32.92469 34378 ft 424 kts 266°
2026-04-07 18:40 54.99582 -33.02723 34373 ft 424 kts 266°
2026-04-07 18:40 54.99787 -33.13013 34375 ft 425 kts 266°
2026-04-07 18:41 54.99983 -33.23315 34368 ft 426 kts 266°
2026-04-07 18:41 55.00172 -33.33643 34362 ft 427 kts 266°
2026-04-07 18:42 55.00352 -33.43994 34363 ft 428 kts 266°
2026-04-07 18:42 55.00524 -33.54364 34359 ft 428 kts 266°
2026-04-07 18:43 55.00687 -33.64744 34355 ft 429 kts 266°
2026-04-07 18:43 55.00841 -33.75144 34356 ft 430 kts 266°
2026-04-07 18:44 55.00987 -33.85572 34357 ft 431 kts 266°
2026-04-07 18:44 55.01125 -33.96024 34351 ft 432 kts 266°
2026-04-07 18:45 55.01253 -34.06491 34343 ft 433 kts 266°
2026-04-07 18:45 55.01373 -34.16979 34341 ft 433 kts 266°
2026-04-07 18:46 55.01484 -34.27495 34338 ft 434 kts 266°
2026-04-07 18:46 55.01586 -34.38024 34335 ft 435 kts 266°
2026-04-07 18:47 55.01664 -34.46768 34333 ft 435 kts 265°
2026-04-07 18:47 55.01763 -34.59047 34330 ft 436 kts 265°
2026-04-07 18:48 55.01838 -34.69599 34328 ft 436 kts 265°
2026-04-07 18:48 55.01893 -34.78447 34329 ft 436 kts 265°
2026-04-07 18:49 55.01952 -34.89035 34319 ft 437 kts 265°
2026-04-07 18:49 55.02001 -34.99628 34320 ft 437 kts 265°
2026-04-07 18:50 55.02041 -35.10228 34321 ft 438 kts 265°
2026-04-07 18:50 55.02072 -35.20840 34322 ft 438 kts 265°
2026-04-07 18:51 55.02093 -35.31467 34320 ft 438 kts 265°
2026-04-07 18:51 55.02105 -35.42097 34314 ft 439 kts 265°
2026-04-07 18:52 55.02109 -35.52751 34310 ft 440 kts 265°
2026-04-07 18:52 55.02103 -35.63399 34293 ft 440 kts 265°
2026-04-07 18:53 55.02087 -35.74082 34302 ft 441 kts 265°
2026-04-07 18:53 55.02062 -35.84692 34304 ft 441 kts 265°
2026-04-07 18:54 55.02028 -35.95376 34307 ft 441 kts 265°
2026-04-07 18:54 55.01984 -36.06072 34297 ft 441 kts 265°
2026-04-07 18:55 55.01931 -36.16774 34301 ft 442 kts 265°
2026-04-07 18:55 55.01869 -36.27481 34301 ft 442 kts 265°
2026-04-07 18:56 55.01797 -36.38204 34294 ft 442 kts 265°
2026-04-07 18:56 55.01716 -36.48872 34291 ft 443 kts 265°
2026-04-07 18:57 55.01625 -36.59599 34289 ft 443 kts 265°
2026-04-07 18:57 55.01525 -36.70347 34283 ft 443 kts 265°
2026-04-07 18:58 55.01415 -36.81096 34288 ft 444 kts 265°
2026-04-07 18:58 55.01295 -36.91849 34283 ft 444 kts 265°
2026-04-07 18:59 55.01166 -37.02603 34289 ft 444 kts 265°
2026-04-07 18:59 55.01028 -37.13355 34289 ft 444 kts 265°
2026-04-07 19:00 55.00880 -37.24111 34287 ft 444 kts 265°
2026-04-07 19:00 55.00722 -37.34890 34284 ft 444 kts 265°
2026-04-07 19:01 55.00555 -37.45648 34273 ft 445 kts 265°
2026-04-07 19:02 55.00286 -37.61822 34278 ft 446 kts 265°
2026-04-07 19:02 55.00094 -37.72634 34274 ft 446 kts 265°
2026-04-07 19:03 54.99893 -37.83443 34278 ft 446 kts 264°
2026-04-07 19:03 54.99682 -37.94236 34131 ft 446 kts 264°
2026-04-07 19:03 54.99573 -37.99627 33952 ft 446 kts 264°
2026-04-07 19:04 54.99461 -38.05034 33775 ft 447 kts 264°
2026-04-07 19:04 54.99348 -38.10450 33613 ft 447 kts 264°
2026-04-07 19:04 54.99231 -38.15861 33451 ft 447 kts 264°
2026-04-07 19:04 54.99112 -38.21280 33322 ft 448 kts 264°
2026-04-07 19:05 54.98991 -38.26690 33309 ft 446 kts 264°
2026-04-07 19:05 54.98744 -38.37429 33288 ft 439 kts 264°
2026-04-07 19:06 54.98497 -38.47841 33250 ft 418 kts 264°
2026-04-07 19:06 54.98375 -38.52820 33253 ft 405 kts 264°
2026-04-07 19:06 54.98253 -38.57645 33251 ft 393 kts 264°
2026-04-07 19:07 54.98006 -38.67138 33263 ft 396 kts 264°
2026-04-07 19:07 54.97756 -38.76736 33254 ft 397 kts 264°
2026-04-07 19:08 54.97494 -38.86351 33261 ft 398 kts 264°
2026-04-07 19:08 54.97228 -38.95890 33252 ft 397 kts 264°
2026-04-07 19:09 54.96953 -39.05446 33263 ft 397 kts 264°
2026-04-07 19:09 54.96669 -39.15074 33265 ft 397 kts 264°
2026-04-07 19:10 54.96378 -39.24663 33268 ft 397 kts 264°
2026-04-07 19:10 54.96080 -39.34267 33266 ft 397 kts 264°
2026-04-07 19:11 54.95774 -39.43860 33262 ft 398 kts 264°
2026-04-07 19:11 54.95460 -39.53463 33266 ft 398 kts 264°
2026-04-07 19:12 54.95138 -39.63088 33262 ft 398 kts 264°
2026-04-07 19:12 54.94809 -39.72686 33259 ft 398 kts 263°
2026-04-07 19:13 54.94472 -39.82299 33261 ft 398 kts 263°
2026-04-07 19:13 54.94127 -39.91900 33257 ft 398 kts 263°
2026-04-07 19:14 54.93775 -40.01513 33260 ft 398 kts 263°
2026-04-07 19:14 54.93415 -40.11121 33256 ft 398 kts 263°
2026-04-07 19:15 54.93048 -40.20718 33257 ft 398 kts 263°
2026-04-07 19:15 54.92673 -40.30320 33253 ft 398 kts 263°
2026-04-07 19:16 54.92295 -40.39831 33250 ft 397 kts 263°
2026-04-07 19:16 54.91904 -40.49431 33252 ft 397 kts 263°
2026-04-07 19:17 54.91508 -40.59015 33256 ft 397 kts 263°
2026-04-07 19:17 54.91103 -40.68597 33257 ft 397 kts 263°
2026-04-07 19:18 54.90692 -40.78160 33251 ft 397 kts 263°
2026-04-07 19:18 54.90272 -40.87743 33260 ft 397 kts 263°
2026-04-07 19:19 54.89845 -40.97312 33258 ft 397 kts 263°
2026-04-07 19:19 54.89411 -41.06884 33259 ft 397 kts 263°
2026-04-07 19:20 54.88969 -41.16445 33254 ft 397 kts 263°
2026-04-07 19:20 54.88520 -41.26009 33259 ft 397 kts 262°
2026-04-07 19:21 54.88063 -41.35579 33250 ft 397 kts 262°
2026-04-07 19:21 54.87598 -41.45144 33255 ft 397 kts 262°
2026-04-07 19:22 54.87126 -41.54699 33257 ft 397 kts 262°
2026-04-07 19:22 54.86647 -41.64242 33261 ft 397 kts 262°
2026-04-07 19:23 54.86160 -41.73796 33255 ft 397 kts 262°
2026-04-07 19:23 54.85666 -41.83345 33262 ft 397 kts 262°
2026-04-07 19:24 54.85164 -41.92901 33259 ft 398 kts 262°
2026-04-07 19:24 54.84654 -42.02457 33261 ft 398 kts 262°
2026-04-07 19:25 54.84140 -42.11943 33266 ft 398 kts 262°
2026-04-07 19:25 54.83615 -42.21501 33263 ft 398 kts 262°
2026-04-07 19:26 54.83082 -42.31054 33265 ft 398 kts 262°
2026-04-07 19:26 54.82543 -42.40600 33264 ft 398 kts 262°
2026-04-07 19:27 54.81995 -42.50139 33267 ft 398 kts 262°
2026-04-07 19:27 54.81440 -42.59689 33265 ft 398 kts 261°
2026-04-07 19:28 54.80877 -42.69233 33266 ft 398 kts 261°
2026-04-07 19:28 54.80308 -42.78766 33273 ft 398 kts 261°
2026-04-07 19:29 54.79730 -42.88306 33277 ft 398 kts 261°
2026-04-07 19:29 54.79145 -42.97838 33269 ft 398 kts 261°
2026-04-07 19:30 54.78553 -43.07363 33272 ft 398 kts 261°
2026-04-07 19:30 54.77954 -43.16883 33277 ft 397 kts 261°
2026-04-07 19:31 54.77450 -43.24793 33276 ft 398 kts 261°
2026-04-07 19:31 54.76838 -43.34301 33281 ft 398 kts 261°
2026-04-07 19:32 54.76217 -43.43822 33283 ft 398 kts 261°
2026-04-07 19:32 54.75589 -43.53327 33283 ft 398 kts 261°
2026-04-07 19:33 54.74953 -43.62842 33289 ft 398 kts 261°
2026-04-07 19:33 54.74310 -43.72350 33290 ft 398 kts 261°
2026-04-07 19:34 54.73660 -43.81851 33292 ft 398 kts 260°
2026-04-07 19:34 54.73001 -43.91360 33294 ft 398 kts 260°
2026-04-07 19:35 54.72335 -44.00869 33300 ft 398 kts 260°
2026-04-07 19:35 54.71661 -44.10375 33304 ft 398 kts 260°
2026-04-07 19:36 54.70981 -44.19869 33302 ft 398 kts 260°
2026-04-07 19:36 54.70293 -44.29361 33306 ft 398 kts 260°
2026-04-07 19:37 54.69597 -44.38868 33313 ft 398 kts 260°
2026-04-07 19:37 54.68894 -44.48356 33309 ft 398 kts 260°
2026-04-07 19:38 54.68184 -44.57830 33314 ft 398 kts 260°
2026-04-07 19:38 54.67472 -44.67244 33319 ft 398 kts 260°
2026-04-07 19:39 54.66748 -44.76708 33323 ft 398 kts 259°
2026-04-07 19:39 54.66016 -44.86178 33328 ft 398 kts 259°
2026-04-07 19:40 54.65277 -44.95640 33331 ft 397 kts 259°
2026-04-07 19:40 54.64530 -45.05095 33335 ft 397 kts 259°
2026-04-07 19:41 54.63777 -45.14548 33339 ft 397 kts 259°
2026-04-07 19:41 54.63016 -45.23994 33341 ft 397 kts 259°
2026-04-07 19:42 54.62247 -45.33446 33352 ft 397 kts 259°
2026-04-07 19:42 54.61472 -45.42884 33347 ft 397 kts 259°
2026-04-07 19:43 54.60689 -45.52324 33358 ft 397 kts 259°
2026-04-07 19:43 54.59899 -45.61756 33365 ft 397 kts 259°
2026-04-07 19:44 54.59101 -45.71183 33364 ft 397 kts 259°
2026-04-07 19:44 54.58297 -45.80606 33371 ft 397 kts 259°
2026-04-07 19:45 54.57485 -45.90022 33367 ft 397 kts 258°
2026-04-07 19:45 54.56665 -45.99438 33379 ft 397 kts 258°
2026-04-07 19:46 54.55838 -46.08857 33387 ft 398 kts 258°
2026-04-07 19:46 54.55004 -46.18267 33394 ft 398 kts 258°
2026-04-07 19:47 54.54162 -46.27686 33395 ft 398 kts 258°
2026-04-07 19:47 54.53313 -46.37094 33399 ft 398 kts 258°
2026-04-07 19:48 54.52455 -46.46508 33415 ft 398 kts 258°
2026-04-07 19:48 54.51590 -46.55919 33418 ft 398 kts 258°
2026-04-07 19:49 54.50724 -46.65269 33418 ft 398 kts 258°
2026-04-07 19:49 54.49844 -46.74671 33424 ft 398 kts 258°
2026-04-07 19:50 54.48958 -46.84071 33432 ft 398 kts 258°
2026-04-07 19:50 54.48064 -46.93462 33434 ft 398 kts 258°
2026-04-07 19:51 54.47163 -47.02855 33439 ft 398 kts 258°
2026-04-07 19:51 54.46254 -47.12245 33449 ft 398 kts 257°
2026-04-07 19:52 54.45339 -47.21618 33458 ft 398 kts 257°
2026-04-07 19:52 54.44416 -47.30995 33456 ft 398 kts 257°
2026-04-07 19:53 54.43486 -47.40366 33468 ft 398 kts 257°
2026-04-07 19:53 54.42550 -47.49725 33477 ft 398 kts 257°
2026-04-07 19:54 54.41605 -47.59084 33481 ft 398 kts 257°
2026-04-07 19:54 54.40654 -47.68441 33485 ft 398 kts 257°
2026-04-07 19:55 54.39695 -47.77790 33487 ft 398 kts 257°
2026-04-07 19:55 54.38729 -47.87137 33498 ft 398 kts 257°
2026-04-07 19:56 54.37756 -47.96483 33501 ft 398 kts 257°
2026-04-07 19:56 54.36776 -48.05813 33506 ft 398 kts 257°
2026-04-07 19:57 54.35789 -48.15144 33517 ft 398 kts 257°
2026-04-07 19:57 54.34794 -48.24477 33520 ft 398 kts 256°
2026-04-07 19:58 54.33792 -48.33801 33526 ft 398 kts 256°
2026-04-07 19:58 54.32782 -48.43132 33535 ft 398 kts 256°
2026-04-07 19:59 54.31764 -48.52460 33531 ft 398 kts 256°
2026-04-07 19:59 54.30740 -48.61776 33541 ft 398 kts 256°
2026-04-07 20:00 54.29715 -48.71036 33546 ft 398 kts 256°
2026-04-07 20:00 54.28152 -48.85010 33554 ft 399 kts 256°
2026-04-07 20:01 54.27103 -48.94312 33562 ft 399 kts 256°
2026-04-07 20:01 54.26043 -49.03640 33570 ft 399 kts 256°
2026-04-07 20:02 54.24978 -49.12949 33576 ft 399 kts 256°
2026-04-07 20:02 54.23905 -49.22250 33586 ft 399 kts 256°
2026-04-07 20:03 54.22825 -49.31548 33591 ft 399 kts 256°
2026-04-07 20:03 54.21739 -49.40840 33597 ft 399 kts 256°
2026-04-07 20:04 54.20644 -49.50135 33606 ft 399 kts 256°
2026-04-07 20:04 54.19543 -49.59416 33611 ft 399 kts 256°
2026-04-07 20:05 54.18435 -49.68689 33612 ft 398 kts 255°
2026-04-07 20:05 54.17321 -49.77953 33622 ft 398 kts 255°
2026-04-07 20:06 54.16203 -49.87180 33624 ft 398 kts 255°
2026-04-07 20:06 54.15074 -49.96444 33634 ft 398 kts 255°
2026-04-07 20:07 54.13938 -50.05689 33637 ft 398 kts 255°
2026-04-07 20:07 54.12805 -50.14860 33641 ft 398 kts 255°
2026-04-07 20:08 54.11658 -50.24076 33643 ft 398 kts 255°
2026-04-07 20:08 54.10504 -50.33287 33654 ft 397 kts 255°
2026-04-07 20:09 54.09343 -50.42493 33657 ft 397 kts 255°
2026-04-07 20:09 54.08177 -50.51680 33663 ft 397 kts 255°
2026-04-07 20:10 54.07001 -50.60876 33661 ft 397 kts 255°
2026-04-07 20:10 54.05820 -50.70061 33673 ft 397 kts 255°
2026-04-07 20:11 54.04633 -50.79234 33678 ft 397 kts 255°
2026-04-07 20:11 54.03439 -50.88397 33687 ft 397 kts 254°
2026-04-07 20:12 54.02240 -50.97546 33692 ft 396 kts 254°
2026-04-07 20:12 54.01032 -51.06697 33699 ft 396 kts 254°
2026-04-07 20:13 53.99819 -51.15830 33702 ft 396 kts 254°
2026-04-07 20:13 53.98600 -51.24951 33710 ft 396 kts 254°
2026-04-07 20:14 53.97374 -51.34073 33712 ft 396 kts 254°
2026-04-07 20:14 53.96139 -51.43197 33719 ft 396 kts 254°
2026-04-07 20:15 53.94898 -51.52315 33723 ft 396 kts 254°
2026-04-07 20:15 53.93659 -51.61364 33727 ft 396 kts 254°
2026-04-07 20:16 53.92403 -51.70474 33742 ft 396 kts 254°
2026-04-07 20:16 53.91142 -51.79572 33743 ft 396 kts 254°
2026-04-07 20:17 53.89872 -51.88678 33749 ft 396 kts 254°
2026-04-07 20:17 53.88596 -51.97766 33752 ft 396 kts 254°
2026-04-07 20:18 53.87531 -52.05312 33755 ft 396 kts 254°
2026-04-07 20:18 53.86235 -52.14452 33763 ft 396 kts 253°
2026-04-07 20:19 53.84949 -52.23466 33764 ft 396 kts 253°
2026-04-07 20:19 53.83648 -52.32528 33769 ft 396 kts 253°
2026-04-07 20:20 53.82340 -52.41579 33776 ft 396 kts 253°
2026-04-07 20:20 53.81026 -52.50628 33776 ft 396 kts 253°
2026-04-07 20:21 53.79707 -52.59662 33774 ft 396 kts 253°
2026-04-07 20:21 53.78381 -52.68687 33784 ft 395 kts 253°
2026-04-07 20:22 53.77049 -52.77697 33791 ft 395 kts 253°
2026-04-07 20:22 53.75711 -52.86697 33801 ft 395 kts 253°
2026-04-07 20:23 53.74369 -52.95683 33804 ft 394 kts 253°
2026-04-07 20:23 53.73019 -53.04663 33806 ft 394 kts 253°
2026-04-07 20:24 53.71663 -53.13630 33815 ft 394 kts 253°
2026-04-07 20:24 53.70303 -53.22581 33819 ft 394 kts 253°
2026-04-07 20:25 53.68934 -53.31537 33820 ft 394 kts 253°
2026-04-07 20:25 53.67561 -53.40471 33829 ft 394 kts 253°
2026-04-07 20:26 53.66179 -53.49416 33833 ft 394 kts 253°
2026-04-07 20:26 53.64793 -53.58339 33836 ft 393 kts 253°
2026-04-07 20:27 53.63409 -53.67197 33837 ft 394 kts 253°
2026-04-07 20:27 53.61999 -53.76177 33845 ft 394 kts 253°
2026-04-07 20:28 53.60601 -53.85028 33845 ft 394 kts 253°
2026-04-07 20:28 53.59188 -53.93932 33853 ft 394 kts 252°
2026-04-07 20:29 53.57766 -54.02835 33855 ft 394 kts 252°
2026-04-07 20:29 53.56337 -54.11747 33857 ft 394 kts 252°
2026-04-07 20:30 53.54899 -54.20658 33857 ft 395 kts 252°
2026-04-07 20:30 53.53455 -54.29567 33863 ft 395 kts 252°
2026-04-07 20:31 53.52002 -54.38478 33866 ft 395 kts 252°
2026-04-07 20:31 53.51274 -54.42926 33730 ft 394 kts 252°
2026-04-07 20:31 53.50547 -54.47359 33301 ft 394 kts 252°
2026-04-07 20:32 53.49878 -54.51423 32807 ft 394 kts 252°
2026-04-07 20:32 53.49452 -54.54004 32480 ft 395 kts 252°
2026-04-07 20:32 53.48718 -54.58452 31939 ft 396 kts 252°
2026-04-07 20:32 53.47988 -54.62859 31423 ft 396 kts 252°
2026-04-07 20:33 53.47249 -54.67313 30904 ft 397 kts 252°
2026-04-07 20:33 53.46507 -54.71773 30387 ft 397 kts 253°
2026-04-07 20:33 53.45762 -54.76236 29875 ft 397 kts 253°
2026-04-07 20:33 53.45026 -54.80640 29837 ft 387 kts 253°
2026-04-07 20:34 53.43550 -54.89422 29862 ft 396 kts 252°
2026-04-07 20:34 53.42048 -54.98329 29865 ft 397 kts 253°
2026-04-07 20:35 53.40548 -55.07167 29870 ft 397 kts 253°
2026-04-07 20:35 53.39033 -55.16051 29869 ft 397 kts 252°
2026-04-07 20:36 53.37511 -55.24937 29870 ft 396 kts 252°
2026-04-07 20:36 53.35983 -55.33802 29875 ft 396 kts 252°
2026-04-07 20:37 53.34450 -55.42659 29876 ft 396 kts 252°
2026-04-07 20:37 53.32909 -55.51521 29875 ft 396 kts 252°
2026-04-07 20:38 53.31363 -55.60360 29876 ft 396 kts 252°
2026-04-07 20:38 53.29834 -55.69068 29786 ft 382 kts 252°
2026-04-07 20:39 53.28326 -55.77601 29873 ft 386 kts 252°
2026-04-07 20:39 53.26808 -55.86163 29887 ft 384 kts 252°
2026-04-07 20:40 53.25286 -55.94705 29886 ft 383 kts 252°
2026-04-07 20:40 53.23759 -56.03231 29889 ft 384 kts 252°
2026-04-07 20:41 53.22234 -56.11710 29885 ft 384 kts 252°
2026-04-07 20:41 53.20694 -56.20230 29888 ft 384 kts 252°
2026-04-07 20:42 53.19147 -56.28750 29887 ft 384 kts 252°
2026-04-07 20:42 53.17594 -56.37262 29891 ft 384 kts 252°
2026-04-07 20:43 53.16034 -56.45771 29891 ft 384 kts 252°
2026-04-07 20:43 53.14471 -56.54263 29891 ft 383 kts 252°
2026-04-07 20:44 53.12903 -56.62740 29896 ft 383 kts 252°
2026-04-07 20:44 53.11330 -56.71204 29901 ft 383 kts 252°
2026-04-07 20:45 53.09177 -56.79268 29912 ft 383 kts 236°
2026-04-07 20:45 53.05681 -56.86010 29900 ft 386 kts 229°
2026-04-07 20:46 53.02018 -56.92526 29911 ft 386 kts 229°
2026-04-07 20:46 52.98348 -56.99018 29917 ft 386 kts 229°
2026-04-07 20:47 52.94671 -57.05512 29915 ft 386 kts 229°
2026-04-07 20:47 52.90991 -57.11992 29923 ft 386 kts 229°
2026-04-07 20:48 52.87310 -57.18457 29921 ft 386 kts 229°
2026-04-07 20:48 52.83625 -57.24911 29923 ft 385 kts 229°
2026-04-07 20:49 52.79940 -57.31348 29927 ft 385 kts 229°
2026-04-07 20:49 52.76257 -57.37765 29931 ft 385 kts 229°
2026-04-07 20:50 52.72572 -57.44170 29933 ft 384 kts 229°
2026-04-07 20:50 52.68889 -57.50552 29938 ft 384 kts 229°
2026-04-07 20:51 52.65206 -57.56920 29937 ft 384 kts 229°
2026-04-07 20:51 52.61523 -57.63270 29945 ft 384 kts 229°
2026-04-07 20:52 52.57840 -57.69603 29947 ft 383 kts 229°
2026-04-07 20:52 52.54142 -57.75946 29968 ft 383 kts 229°
2026-04-07 20:53 52.50406 -57.82338 29967 ft 383 kts 229°
2026-04-07 20:53 52.46714 -57.88638 29968 ft 383 kts 229°
2026-04-07 20:54 52.43015 -57.94932 29968 ft 383 kts 229°
2026-04-07 20:54 52.39315 -58.01214 29969 ft 383 kts 229°
2026-04-07 20:55 52.35614 -58.07481 29978 ft 382 kts 229°
2026-04-07 20:55 52.31919 -58.13719 29976 ft 382 kts 229°
2026-04-07 20:56 52.28218 -58.19955 29979 ft 382 kts 229°
2026-04-07 20:56 52.24513 -58.26183 30001 ft 386 kts 229°
2026-04-07 20:57 52.20730 -58.32523 30001 ft 396 kts 229°
2026-04-07 20:57 52.16865 -58.38980 30004 ft 398 kts 229°
2026-04-07 20:58 52.12994 -58.45433 30015 ft 398 kts 229°
2026-04-07 20:58 52.09777 -58.50783 30017 ft 398 kts 229°
2026-04-07 20:59 52.05904 -58.57209 30022 ft 398 kts 229°
2026-04-07 20:59 52.02030 -58.63620 30020 ft 397 kts 228°
2026-04-07 21:00 51.96222 -58.73198 30023 ft 397 kts 228°
2026-04-07 21:01 51.92359 -58.79547 30023 ft 395 kts 228°
2026-04-07 21:01 51.88501 -58.85873 30024 ft 394 kts 228°
2026-04-07 21:02 51.84642 -58.92185 30026 ft 394 kts 228°
2026-04-07 21:02 51.80782 -58.98480 30027 ft 393 kts 228°
2026-04-07 21:03 51.76935 -59.04740 30028 ft 393 kts 228°
2026-04-07 21:03 51.73074 -59.11004 30026 ft 393 kts 228°
2026-04-07 21:04 51.69220 -59.17243 30028 ft 392 kts 228°
2026-04-07 21:04 51.65366 -59.23464 30025 ft 392 kts 228°
2026-04-07 21:05 51.61518 -59.29661 30029 ft 391 kts 228°
2026-04-07 21:05 51.57672 -59.35839 30023 ft 391 kts 228°
2026-04-07 21:06 51.53825 -59.42003 30047 ft 390 kts 228°
2026-04-07 21:06 51.49983 -59.48142 30043 ft 390 kts 228°
2026-04-07 21:07 51.46164 -59.54231 30041 ft 389 kts 228°
2026-04-07 21:07 51.42326 -59.60334 30043 ft 389 kts 227°
2026-04-07 21:08 51.38486 -59.66423 30040 ft 388 kts 227°
2026-04-07 21:08 51.34653 -59.72490 30037 ft 388 kts 227°
2026-04-07 21:09 51.30813 -59.78550 30032 ft 388 kts 227°
2026-04-07 21:09 51.26963 -59.84610 30030 ft 388 kts 227°
2026-04-07 21:10 51.23119 -59.90648 30038 ft 388 kts 227°
2026-04-07 21:10 51.19270 -59.96677 30039 ft 388 kts 227°
2026-04-07 21:11 51.15421 -60.02692 30041 ft 388 kts 227°
2026-04-07 21:11 51.11568 -60.08699 30046 ft 388 kts 227°
2026-04-07 21:12 51.07707 -60.14702 30055 ft 388 kts 227°
2026-04-07 21:12 51.03847 -60.20689 30060 ft 388 kts 227°
2026-04-07 21:13 50.99979 -60.26676 30067 ft 388 kts 227°
2026-04-07 21:13 50.96108 -60.32650 30067 ft 388 kts 227°
2026-04-07 21:14 50.92237 -60.38610 30072 ft 388 kts 227°
2026-04-07 21:14 50.88359 -60.44567 30079 ft 388 kts 227°
2026-04-07 21:15 50.84477 -60.50515 30084 ft 388 kts 227°
2026-04-07 21:15 50.80593 -60.56453 30090 ft 389 kts 227°
2026-04-07 21:16 50.76699 -60.62389 30090 ft 389 kts 227°
2026-04-07 21:16 50.72808 -60.68308 30108 ft 389 kts 227°
2026-04-07 21:17 50.68914 -60.74217 30106 ft 389 kts 227°
2026-04-07 21:17 50.64971 -60.80190 30131 ft 399 kts 227°
2026-04-07 21:18 50.60889 -60.86353 30140 ft 414 kts 226°
2026-04-07 21:18 50.56655 -60.92728 30127 ft 428 kts 226°
2026-04-07 21:19 50.52287 -60.99290 30134 ft 441 kts 226°
2026-04-07 21:19 50.47810 -61.05996 30137 ft 453 kts 226°
2026-04-07 21:20 50.43181 -61.12911 30141 ft 466 kts 226°
2026-04-07 21:20 50.38440 -61.19970 30148 ft 471 kts 226°
2026-04-07 21:21 50.33687 -61.27029 30147 ft 471 kts 226°
2026-04-07 21:21 50.28931 -61.34073 30151 ft 471 kts 226°
2026-04-07 21:22 50.24181 -61.41086 30153 ft 471 kts 226°
2026-04-07 21:22 50.19410 -61.48110 30153 ft 470 kts 226°
2026-04-07 21:23 50.14716 -61.55002 30150 ft 470 kts 226°
2026-04-07 21:23 50.09961 -61.61963 30150 ft 470 kts 226°
2026-04-07 21:24 50.05158 -61.68975 30146 ft 469 kts 226°
2026-04-07 21:24 50.00393 -61.75910 30157 ft 469 kts 226°
2026-04-07 21:25 49.95655 -61.82788 30167 ft 469 kts 226°
2026-04-07 21:25 49.90889 -61.89686 30172 ft 468 kts 226°
2026-04-07 21:26 49.86117 -61.96573 30185 ft 468 kts 226°
2026-04-07 21:26 49.81352 -62.03430 30194 ft 468 kts 226°
2026-04-07 21:27 49.76583 -62.10275 30189 ft 467 kts 226°
2026-04-07 21:27 49.71811 -62.17104 30195 ft 467 kts 226°
2026-04-07 21:28 49.67043 -62.23908 30203 ft 466 kts 226°
2026-04-07 21:28 49.62281 -62.30685 30201 ft 466 kts 226°
2026-04-07 21:29 49.57513 -62.37452 30206 ft 465 kts 226°
2026-04-07 21:29 49.52747 -62.44196 30209 ft 465 kts 226°
2026-04-07 21:30 49.47987 -62.50914 30212 ft 464 kts 226°
2026-04-07 21:30 49.43334 -62.57463 30222 ft 464 kts 226°
2026-04-07 21:31 49.38575 -62.64143 30236 ft 463 kts 226°
2026-04-07 21:31 49.33817 -62.70803 30226 ft 463 kts 226°
2026-04-07 21:32 49.29062 -62.77441 30233 ft 463 kts 226°
2026-04-07 21:32 49.24297 -62.84076 30230 ft 462 kts 226°
2026-04-07 21:33 49.19537 -62.90685 30237 ft 462 kts 226°
2026-04-07 21:33 49.14777 -62.97275 30245 ft 461 kts 226°
2026-04-07 21:34 49.10018 -63.03846 30247 ft 461 kts 226°
2026-04-07 21:34 49.05257 -63.10402 30249 ft 461 kts 226°
2026-04-07 21:35 49.00491 -63.16950 30252 ft 461 kts 226°
2026-04-07 21:35 48.95725 -63.23478 30250 ft 461 kts 226°
2026-04-07 21:36 48.90955 -63.29994 30250 ft 461 kts 226°
2026-04-07 21:36 48.86188 -63.36489 30256 ft 460 kts 225°
2026-04-07 21:37 48.81424 -63.42962 30254 ft 459 kts 226°
2026-04-07 21:37 48.76666 -63.49409 30259 ft 458 kts 225°
2026-04-07 21:38 48.71913 -63.55833 30247 ft 458 kts 225°
2026-04-07 21:38 48.67154 -63.62249 30252 ft 458 kts 225°
2026-04-07 21:39 48.62395 -63.68648 30250 ft 458 kts 225°
2026-04-07 21:39 48.57634 -63.75032 30257 ft 458 kts 225°
2026-04-07 21:40 48.52862 -63.81415 30255 ft 458 kts 225°
2026-04-07 21:40 48.48131 -63.87725 30251 ft 457 kts 225°
2026-04-07 21:41 48.44130 -63.93050 30253 ft 457 kts 225°
2026-04-07 21:41 48.39367 -63.99373 30252 ft 456 kts 225°
2026-04-07 21:42 48.34594 -64.05694 30239 ft 456 kts 225°
2026-04-07 21:42 48.29833 -64.11982 30239 ft 455 kts 225°
2026-04-07 21:43 48.25077 -64.18247 30233 ft 454 kts 225°
2026-04-07 21:43 48.20339 -64.24472 30236 ft 454 kts 225°
2026-04-07 21:44 48.15597 -64.30685 30236 ft 444 kts 225°
2026-04-07 21:44 48.13303 -64.33679 30235 ft 429 kts 225°
2026-04-07 21:44 48.11097 -64.36560 30235 ft 414 kts 225°
2026-04-07 21:44 48.08970 -64.39338 30229 ft 400 kts 225°
2026-04-07 21:45 48.06909 -64.42026 30231 ft 386 kts 225°
2026-04-07 21:45 48.04916 -64.44620 30240 ft 374 kts 226°
2026-04-07 21:45 48.02954 -64.47177 30255 ft 376 kts 226°
2026-04-07 21:46 47.98991 -64.52328 30265 ft 378 kts 225°
2026-04-07 21:46 47.95018 -64.57473 30268 ft 378 kts 226°
2026-04-07 21:47 47.91043 -64.62616 30261 ft 378 kts 225°
2026-04-07 21:47 47.87069 -64.67743 30263 ft 378 kts 225°
2026-04-07 21:48 47.83124 -64.72825 30263 ft 377 kts 225°
2026-04-07 21:48 47.79150 -64.77930 30255 ft 377 kts 225°
2026-04-07 21:49 47.75177 -64.83025 30254 ft 377 kts 225°
2026-04-07 21:49 47.71203 -64.88111 30260 ft 377 kts 225°
2026-04-07 21:50 47.67226 -64.93189 30255 ft 377 kts 225°
2026-04-07 21:50 47.63248 -64.98260 30252 ft 377 kts 225°
2026-04-07 21:51 47.59274 -65.03313 30253 ft 377 kts 225°
2026-04-07 21:51 47.55294 -65.08364 30251 ft 377 kts 225°
2026-04-07 21:52 47.51317 -65.13401 30250 ft 376 kts 225°
2026-04-07 21:52 47.47333 -65.18436 30253 ft 376 kts 225°
2026-04-07 21:53 47.43355 -65.23452 30246 ft 375 kts 225°
2026-04-07 21:53 47.39388 -65.28446 30249 ft 375 kts 225°
2026-04-07 21:54 47.35424 -65.33424 30249 ft 374 kts 225°
2026-04-07 21:54 47.31464 -65.38389 30238 ft 373 kts 225°
2026-04-07 21:55 47.27509 -65.43336 30245 ft 373 kts 225°
2026-04-07 21:55 47.23562 -65.48262 30248 ft 372 kts 225°
2026-04-07 21:56 47.19618 -65.53176 30247 ft 371 kts 225°
2026-04-07 21:56 47.15682 -65.58070 30237 ft 370 kts 225°
2026-04-07 21:57 47.11770 -65.62925 30259 ft 370 kts 225°
2026-04-07 21:57 47.07835 -65.67797 30249 ft 370 kts 225°
2026-04-07 21:58 47.03906 -65.72654 30254 ft 370 kts 225°
2026-04-07 21:58 46.99970 -65.77509 30252 ft 369 kts 225°
2026-04-07 21:59 46.96040 -65.82346 30241 ft 369 kts 225°
2026-04-07 21:59 46.92118 -65.87165 30248 ft 368 kts 225°
2026-04-07 22:00 46.88195 -65.91975 30245 ft 368 kts 224°
2026-04-07 22:00 46.84275 -65.96771 30251 ft 368 kts 224°
2026-04-07 22:01 46.80380 -66.01526 30253 ft 364 kts 224°
2026-04-07 22:01 46.76474 -66.06292 30251 ft 366 kts 224°
2026-04-07 22:02 46.72556 -66.11056 30250 ft 367 kts 224°
2026-04-07 22:02 46.68632 -66.15821 30249 ft 367 kts 224°
2026-04-07 22:03 46.64709 -66.20575 30244 ft 367 kts 224°
2026-04-07 22:03 46.58816 -66.27698 30236 ft 367 kts 224°
2026-04-07 22:04 46.54890 -66.32432 30239 ft 367 kts 224°
2026-04-07 22:04 46.50964 -66.37158 30246 ft 366 kts 224°
2026-04-07 22:05 46.47065 -66.41841 30253 ft 366 kts 224°
2026-04-07 22:05 46.43113 -66.46580 30248 ft 366 kts 224°
2026-04-07 22:06 46.39188 -66.51276 30242 ft 366 kts 224°
2026-04-07 22:06 46.35262 -66.55965 30235 ft 365 kts 224°
2026-04-07 22:07 46.31339 -66.60641 30234 ft 365 kts 224°
2026-04-07 22:07 46.27441 -66.65278 30236 ft 365 kts 224°
2026-04-07 22:08 46.23520 -66.69934 30234 ft 365 kts 224°
2026-04-07 22:08 46.19603 -66.74577 30234 ft 364 kts 224°
2026-04-07 22:09 46.15680 -66.79217 30230 ft 364 kts 224°
2026-04-07 22:09 46.11763 -66.83842 30228 ft 364 kts 224°
2026-04-07 22:10 46.07839 -66.88466 30240 ft 364 kts 224°
2026-04-07 22:10 46.03910 -66.93087 30226 ft 365 kts 224°
2026-04-07 22:11 45.99980 -66.97701 30220 ft 364 kts 224°
2026-04-07 22:11 45.96051 -67.02306 30218 ft 365 kts 224°
2026-04-07 22:12 45.92111 -67.06913 30218 ft 366 kts 224°
2026-04-07 22:12 45.88166 -67.11519 30218 ft 366 kts 224°
2026-04-07 22:13 45.84209 -67.16128 30217 ft 366 kts 224°
2026-04-07 22:13 45.80253 -67.20730 30218 ft 366 kts 224°
2026-04-07 22:14 45.76294 -67.25324 30191 ft 365 kts 224°
2026-04-07 22:14 45.74322 -67.27609 29804 ft 364 kts 224°
2026-04-07 22:14 45.72343 -67.29903 29060 ft 368 kts 224°
2026-04-07 22:15 45.70344 -67.32218 28253 ft 372 kts 223°
2026-04-07 22:15 45.68323 -67.34553 27572 ft 374 kts 223°
2026-04-07 22:15 45.66304 -67.36880 27043 ft 372 kts 223°
2026-04-07 22:15 45.64288 -67.39205 26535 ft 371 kts 223°
2026-04-07 22:16 45.62286 -67.41514 26005 ft 370 kts 223°
2026-04-07 22:16 45.60314 -67.43786 25515 ft 369 kts 223°
2026-04-07 22:16 45.58292 -67.46112 25025 ft 368 kts 222°
2026-04-07 22:16 45.56309 -67.48389 24546 ft 367 kts 222°
2026-04-07 22:17 45.54345 -67.50645 24089 ft 366 kts 222°
2026-04-07 22:17 45.52341 -67.52944 23575 ft 365 kts 222°
2026-04-07 22:17 45.50359 -67.55216 23023 ft 364 kts 222°
2026-04-07 22:17 45.48410 -67.57447 22497 ft 363 kts 221°
2026-04-07 22:18 45.46444 -67.59696 21980 ft 362 kts 221°
2026-04-07 22:18 45.44483 -67.61937 21482 ft 361 kts 221°
2026-04-07 22:18 45.42529 -67.64168 21014 ft 360 kts 221°
2026-04-07 22:18 45.40578 -67.66393 20741 ft 356 kts 221°
2026-04-07 22:19 45.38632 -67.68612 20754 ft 363 kts 221°
2026-04-07 22:19 45.36660 -67.70859 20750 ft 362 kts 221°
2026-04-07 22:19 45.34643 -67.73095 20758 ft 364 kts 217°
2026-04-07 22:19 45.32427 -67.74858 20755 ft 369 kts 208°
2026-04-07 22:20 45.30064 -67.76320 20752 ft 369 kts 208°
2026-04-07 22:20 45.27713 -67.77783 20753 ft 369 kts 208°
2026-04-07 22:20 45.25393 -67.79228 20753 ft 369 kts 208°
2026-04-07 22:20 45.23037 -67.80690 20752 ft 370 kts 208°
2026-04-07 22:21 45.20679 -67.82149 20753 ft 370 kts 208°
2026-04-07 22:21 45.18329 -67.83605 20751 ft 370 kts 208°
2026-04-07 22:21 45.15967 -67.85067 20737 ft 369 kts 208°
2026-04-07 22:21 45.13623 -67.86515 20504 ft 368 kts 208°
2026-04-07 22:22 45.11281 -67.87962 20272 ft 367 kts 208°
2026-04-07 22:22 45.08910 -67.89425 20020 ft 366 kts 208°
2026-04-07 22:22 45.06584 -67.90859 19790 ft 365 kts 208°
2026-04-07 22:22 45.04285 -67.92275 19561 ft 364 kts 208°
2026-04-07 22:23 45.01964 -67.93704 19320 ft 364 kts 208°
2026-04-07 22:23 44.99614 -67.95149 19256 ft 364 kts 208°
2026-04-07 22:23 44.97290 -67.96577 19264 ft 363 kts 208°
2026-04-07 22:23 44.94987 -67.97989 19012 ft 360 kts 208°
2026-04-07 22:24 44.92687 -67.99400 18606 ft 359 kts 208°
2026-04-07 22:24 44.90433 -68.00782 18135 ft 358 kts 208°
2026-04-07 22:24 44.88146 -68.02182 17671 ft 357 kts 207°
2026-04-07 22:24 44.85877 -68.03569 17216 ft 355 kts 207°
2026-04-07 22:25 44.83584 -68.04971 16785 ft 353 kts 207°
2026-04-07 22:25 44.81365 -68.06326 16355 ft 352 kts 207°
2026-04-07 22:25 44.79125 -68.07692 15938 ft 350 kts 207°
2026-04-07 22:25 44.77616 -68.08613 15652 ft 349 kts 207°
2026-04-07 22:26 44.74679 -68.10401 15253 ft 343 kts 207°
2026-04-07 22:26 44.72485 -68.11737 15272 ft 349 kts 207°
2026-04-07 22:26 44.70977 -68.12656 15266 ft 349 kts 207°
2026-04-07 22:26 44.68754 -68.14006 15274 ft 349 kts 207°
2026-04-07 22:27 44.66522 -68.15361 15276 ft 348 kts 207°
2026-04-07 22:27 44.64304 -68.16705 15085 ft 346 kts 207°
2026-04-07 22:27 44.62094 -68.18046 14839 ft 346 kts 207°
2026-04-07 22:27 44.59886 -68.19384 14602 ft 345 kts 207°
2026-04-07 22:28 44.57711 -68.20700 14368 ft 345 kts 207°
2026-04-07 22:28 44.55484 -68.22046 14278 ft 343 kts 207°
2026-04-07 22:28 44.53307 -68.23362 14276 ft 347 kts 207°
2026-04-07 22:28 44.51071 -68.24712 14284 ft 346 kts 207°
2026-04-07 22:29 44.48853 -68.26050 14285 ft 347 kts 207°
2026-04-07 22:29 44.46636 -68.27385 14279 ft 346 kts 207°
2026-04-07 22:29 44.44428 -68.28715 14276 ft 342 kts 207°
2026-04-07 22:29 44.42276 -68.30006 14262 ft 330 kts 207°
2026-04-07 22:30 44.40077 -68.31326 14263 ft 317 kts 207°
2026-04-07 22:30 44.38215 -68.32446 14253 ft 306 kts 207°
2026-04-07 22:30 44.36289 -68.33604 14261 ft 302 kts 208°
2026-04-07 22:30 44.34348 -68.34774 14260 ft 303 kts 208°
2026-04-07 22:31 44.32410 -68.35934 14260 ft 304 kts 208°
2026-04-07 22:31 44.30468 -68.37097 14260 ft 304 kts 207°
2026-04-07 22:31 44.28548 -68.38246 14259 ft 304 kts 208°
2026-04-07 22:31 44.26614 -68.39402 14260 ft 304 kts 208°
2026-04-07 22:32 44.24666 -68.40567 14261 ft 303 kts 208°
2026-04-07 22:32 44.22724 -68.41727 14255 ft 304 kts 208°
2026-04-07 22:32 44.20780 -68.42887 14249 ft 304 kts 208°
2026-04-07 22:32 44.18838 -68.44046 14253 ft 304 kts 208°
2026-04-07 22:33 44.16895 -68.45203 14247 ft 304 kts 208°
2026-04-07 22:33 44.14953 -68.46360 14248 ft 303 kts 208°
2026-04-07 22:33 44.13013 -68.47515 14241 ft 303 kts 208°
2026-04-07 22:33 44.11088 -68.48658 14034 ft 300 kts 208°
2026-04-07 22:34 44.09164 -68.49803 13654 ft 300 kts 208°
2026-04-07 22:34 44.07248 -68.50941 13292 ft 299 kts 208°
2026-04-07 22:34 44.05335 -68.52076 12959 ft 298 kts 208°
2026-04-07 22:34 44.03428 -68.53207 12619 ft 297 kts 208°
2026-04-07 22:35 44.01506 -68.54346 12325 ft 296 kts 208°
2026-04-07 22:35 43.99638 -68.55452 12003 ft 295 kts 208°
2026-04-07 22:35 43.97723 -68.56585 11683 ft 294 kts 208°
2026-04-07 22:35 43.95876 -68.57678 11379 ft 293 kts 208°
2026-04-07 22:36 43.93995 -68.58789 11074 ft 292 kts 208°
2026-04-07 22:36 43.92125 -68.59894 10771 ft 292 kts 208°
2026-04-07 22:36 43.90260 -68.60995 10472 ft 291 kts 208°
2026-04-07 22:36 43.88402 -68.62091 10235 ft 287 kts 208°
2026-04-07 22:37 43.86568 -68.63171 10244 ft 286 kts 208°
2026-04-07 22:37 43.84772 -68.64227 10224 ft 278 kts 208°
2026-04-07 22:37 43.82985 -68.65281 10212 ft 279 kts 208°
2026-04-07 22:37 43.81201 -68.66331 9961 ft 278 kts 208°
2026-04-07 22:38 43.79420 -68.67378 9670 ft 278 kts 208°
2026-04-07 22:38 43.77642 -68.68422 9387 ft 278 kts 208°
2026-04-07 22:38 43.75869 -68.69463 9235 ft 275 kts 208°
2026-04-07 22:38 43.74085 -68.70511 9246 ft 279 kts 208°
2026-04-07 22:39 43.72302 -68.71556 9248 ft 279 kts 208°
2026-04-07 22:39 43.70511 -68.72605 9237 ft 279 kts 208°
2026-04-07 22:39 43.68721 -68.73653 9239 ft 279 kts 208°
2026-04-07 22:39 43.66932 -68.74700 9240 ft 279 kts 208°
2026-04-07 22:40 43.65142 -68.75746 9237 ft 280 kts 208°
2026-04-07 22:40 43.63354 -68.76792 9235 ft 279 kts 208°
2026-04-07 22:40 43.61563 -68.77838 9233 ft 279 kts 208°
2026-04-07 22:40 43.59827 -68.78851 9238 ft 279 kts 208°
2026-04-07 22:41 43.58039 -68.79894 9230 ft 279 kts 208°
2026-04-07 22:41 43.56255 -68.80932 9134 ft 277 kts 208°
2026-04-07 22:41 43.54483 -68.81965 8842 ft 277 kts 208°
2026-04-07 22:41 43.52709 -68.82999 8579 ft 277 kts 208°
2026-04-07 22:42 43.50954 -68.84020 8303 ft 277 kts 208°
2026-04-07 22:42 43.49182 -68.85050 8049 ft 276 kts 208°
2026-04-07 22:42 43.47413 -68.86078 7789 ft 276 kts 208°
2026-04-07 22:42 43.45647 -68.87103 7545 ft 275 kts 208°
2026-04-07 22:43 43.43884 -68.88127 7286 ft 275 kts 208°
2026-04-07 22:43 43.42127 -68.89145 7226 ft 275 kts 208°
2026-04-07 22:43 43.40363 -68.90168 7233 ft 275 kts 208°
2026-04-07 22:43 43.38599 -68.91190 7231 ft 275 kts 208°
2026-04-07 22:44 43.36832 -68.92213 7234 ft 275 kts 208°
2026-04-07 22:44 43.35069 -68.93232 7225 ft 275 kts 208°
2026-04-07 22:44 43.33303 -68.94254 7226 ft 275 kts 208°
2026-04-07 22:44 43.31541 -68.95272 7223 ft 275 kts 208°
2026-04-07 22:45 43.29777 -68.96290 7228 ft 275 kts 208°
2026-04-07 22:45 43.28018 -68.97305 7222 ft 274 kts 208°
2026-04-07 22:45 43.26256 -68.98321 7224 ft 274 kts 208°
2026-04-07 22:45 43.24494 -68.99337 7224 ft 274 kts 208°
2026-04-07 22:46 43.22736 -69.00349 7217 ft 274 kts 208°
2026-04-07 22:46 43.20976 -69.01362 7219 ft 274 kts 208°
2026-04-07 22:46 43.19218 -69.02373 7220 ft 274 kts 208°
2026-04-07 22:46 43.17457 -69.03386 7217 ft 274 kts 208°
2026-04-07 22:47 43.15696 -69.04397 7212 ft 274 kts 208°
2026-04-07 22:47 43.13939 -69.05406 7218 ft 274 kts 208°
2026-04-07 22:47 43.12185 -69.06413 7215 ft 274 kts 208°
2026-04-07 22:47 43.10455 -69.07405 7222 ft 274 kts 208°
2026-04-07 22:48 43.08698 -69.08412 7221 ft 273 kts 208°
2026-04-07 22:48 43.06945 -69.09416 7216 ft 273 kts 208°
2026-04-07 22:48 43.05191 -69.10419 7206 ft 273 kts 208°
2026-04-07 22:48 43.03417 -69.11434 7218 ft 273 kts 208°
2026-04-07 22:49 43.01686 -69.12423 7210 ft 273 kts 208°
2026-04-07 22:49 42.99910 -69.13438 7209 ft 273 kts 208°
2026-04-07 22:49 42.98160 -69.14437 7207 ft 273 kts 208°
2026-04-07 22:49 42.96434 -69.15422 7215 ft 273 kts 208°
2026-04-07 22:50 42.94684 -69.16419 7212 ft 273 kts 208°
2026-04-07 22:50 42.92934 -69.17417 7210 ft 272 kts 209°
2026-04-07 22:50 42.91185 -69.18413 7203 ft 272 kts 209°
2026-04-07 22:50 42.89435 -69.19409 7210 ft 272 kts 209°
2026-04-07 22:51 42.87692 -69.20401 7202 ft 272 kts 209°
2026-04-07 22:51 42.85944 -69.21394 7209 ft 272 kts 209°
2026-04-07 22:51 42.84201 -69.22385 7206 ft 271 kts 209°
2026-04-07 22:51 42.82458 -69.23374 7203 ft 271 kts 209°
2026-04-07 22:52 42.80719 -69.24361 7206 ft 271 kts 209°
2026-04-07 22:52 42.78975 -69.25349 7207 ft 271 kts 209°
2026-04-07 22:52 42.77238 -69.26334 7210 ft 271 kts 209°
2026-04-07 22:52 42.75498 -69.27320 7211 ft 271 kts 209°
2026-04-07 22:53 42.73762 -69.28303 7204 ft 270 kts 209°
2026-04-07 22:53 42.72023 -69.29287 7203 ft 271 kts 209°
2026-04-07 22:53 42.70283 -69.30270 7213 ft 271 kts 209°
2026-04-07 22:53 42.68547 -69.31252 7212 ft 271 kts 209°
2026-04-07 22:54 42.66811 -69.32232 7206 ft 270 kts 209°
2026-04-07 22:54 42.65071 -69.33213 7211 ft 270 kts 209°
2026-04-07 22:54 42.63334 -69.34193 7213 ft 270 kts 208°
2026-04-07 22:54 42.61598 -69.35171 7216 ft 270 kts 209°
2026-04-07 22:55 42.59862 -69.36149 7207 ft 270 kts 209°
2026-04-07 22:55 42.58125 -69.37127 7208 ft 270 kts 209°
2026-04-07 22:55 42.56386 -69.38105 7209 ft 270 kts 208°
2026-04-07 22:55 42.54653 -69.39080 7219 ft 270 kts 208°
2026-04-07 22:56 42.52911 -69.40059 7209 ft 270 kts 208°
2026-04-07 22:56 42.51184 -69.41028 6994 ft 268 kts 208°
2026-04-07 22:56 42.49461 -69.41996 6747 ft 268 kts 208°
2026-04-07 22:56 42.47739 -69.42962 6497 ft 268 kts 208°
2026-04-07 22:57 42.46019 -69.43926 6239 ft 267 kts 208°
2026-04-07 22:57 42.44303 -69.44887 5993 ft 267 kts 208°
2026-04-07 22:57 42.42586 -69.45849 5741 ft 267 kts 208°
2026-04-07 22:57 42.40882 -69.46802 5487 ft 266 kts 208°
2026-04-07 22:58 42.39159 -69.47765 5247 ft 266 kts 207°
2026-04-07 22:58 42.37437 -69.48730 5243 ft 277 kts 207°
2026-04-07 22:58 42.35639 -69.49738 5237 ft 276 kts 207°
2026-04-07 22:58 42.33886 -69.50710 5246 ft 279 kts 207°
2026-04-07 22:59 42.32098 -69.51708 5239 ft 278 kts 207°
2026-04-07 22:59 42.30299 -69.52713 5240 ft 279 kts 207°
2026-04-07 22:59 42.28505 -69.53712 5242 ft 279 kts 207°
2026-04-07 22:59 42.26710 -69.54711 5245 ft 279 kts 207°
2026-04-07 23:00 42.24915 -69.55710 5232 ft 279 kts 207°
2026-04-07 23:00 42.23123 -69.56707 5238 ft 279 kts 207°
2026-04-07 23:00 42.21322 -69.57708 5235 ft 279 kts 207°
2026-04-07 23:00 42.19528 -69.58705 5226 ft 279 kts 207°
2026-04-07 23:01 42.17734 -69.59700 5230 ft 278 kts 207°
2026-04-07 23:01 42.15945 -69.60693 5231 ft 279 kts 207°
2026-04-07 23:01 42.14156 -69.61685 5234 ft 278 kts 207°
2026-04-07 23:02 42.10575 -69.63669 5233 ft 278 kts 207°
2026-04-07 23:02 42.08784 -69.64660 5232 ft 278 kts 207°
2026-04-07 23:02 42.06993 -69.65650 5232 ft 278 kts 207°
2026-04-07 23:02 42.05204 -69.66639 5233 ft 278 kts 207°
2026-04-07 23:03 42.03414 -69.67628 5233 ft 278 kts 207°
2026-04-07 23:03 42.01619 -69.68619 5235 ft 278 kts 207°
2026-04-07 23:03 41.99925 -69.69802 5244 ft 272 kts 224°
2026-04-07 23:03 41.98689 -69.71665 5247 ft 264 kts 244°
2026-04-07 23:04 41.98054 -69.73933 5258 ft 261 kts 263°
2026-04-07 23:04 41.98058 -69.76355 5261 ft 260 kts 282°
2026-04-07 23:04 41.98701 -69.78620 5259 ft 262 kts 301°
2026-04-07 23:04 41.99914 -69.80443 5259 ft 266 kts 321°
2026-04-07 23:05 42.01573 -69.81576 5263 ft 273 kts 341°
2026-04-07 23:05 42.03457 -69.82038 5257 ft 276 kts 347°
2026-04-07 23:05 42.05352 -69.82414 5257 ft 276 kts 347°
2026-04-07 23:05 42.07250 -69.82784 5262 ft 276 kts 347°
2026-04-07 23:06 42.09144 -69.83170 5266 ft 275 kts 347°
2026-04-07 23:06 42.11037 -69.83560 5257 ft 275 kts 347°
2026-04-07 23:06 42.12917 -69.83943 5105 ft 272 kts 347°
2026-04-07 23:06 42.14791 -69.84324 4843 ft 272 kts 347°
2026-04-07 23:07 42.16665 -69.84706 4590 ft 272 kts 347°
2026-04-07 23:07 42.18531 -69.85087 4350 ft 271 kts 347°
2026-04-07 23:07 42.20383 -69.85464 4256 ft 268 kts 347°
2026-04-07 23:07 42.22242 -69.85845 4259 ft 269 kts 347°
2026-04-07 23:08 42.23468 -69.86096 4260 ft 270 kts 347°
2026-04-07 23:08 42.25950 -69.86604 4263 ft 270 kts 347°
2026-04-07 23:08 42.27806 -69.86983 4252 ft 269 kts 347°
2026-04-07 23:08 42.29660 -69.87363 4255 ft 270 kts 347°
2026-04-07 23:09 42.31515 -69.87743 4252 ft 269 kts 347°
2026-04-07 23:09 42.33369 -69.88123 4252 ft 270 kts 347°
2026-04-07 23:09 42.34596 -69.88375 4251 ft 269 kts 347°
2026-04-07 23:09 42.36447 -69.88755 4251 ft 269 kts 347°
2026-04-07 23:10 42.38298 -69.89135 4251 ft 269 kts 347°
2026-04-07 23:10 42.40152 -69.89516 4254 ft 269 kts 347°
2026-04-07 23:10 42.42006 -69.89897 4250 ft 269 kts 347°
2026-04-07 23:10 42.43854 -69.90277 4249 ft 269 kts 347°
2026-04-07 23:11 42.45706 -69.90659 4252 ft 269 kts 347°
2026-04-07 23:11 42.47556 -69.91040 4251 ft 269 kts 347°
2026-04-07 23:11 42.49385 -69.91568 4254 ft 268 kts 342°
2026-04-07 23:11 42.51198 -69.92134 4247 ft 268 kts 343°
2026-04-07 23:12 42.53022 -69.92680 4249 ft 268 kts 343°
2026-04-07 23:12 42.54831 -69.93244 4255 ft 267 kts 343°
2026-04-07 23:12 42.56643 -69.93819 4251 ft 267 kts 343°
2026-04-07 23:12 42.58453 -69.94390 4252 ft 267 kts 343°
2026-04-07 23:13 42.60264 -69.94958 4253 ft 267 kts 343°
2026-04-07 23:13 42.62073 -69.95525 4252 ft 267 kts 343°
2026-04-07 23:13 42.63884 -69.96095 4252 ft 267 kts 343°
2026-04-07 23:13 42.65691 -69.96665 4251 ft 267 kts 343°
2026-04-07 23:14 42.67501 -69.97236 4250 ft 267 kts 343°
2026-04-07 23:14 42.69310 -69.97808 4253 ft 266 kts 343°
2026-04-07 23:14 42.71110 -69.98385 4249 ft 265 kts 341°
2026-04-07 23:14 42.72763 -69.99422 4215 ft 260 kts 319°
2026-04-07 23:15 42.73970 -70.01229 4155 ft 260 kts 301°
2026-04-07 23:15 42.74657 -70.03571 3654 ft 278 kts 282°
2026-04-07 23:15 42.74765 -70.06241 3527 ft 284 kts 266°
2026-04-07 23:15 42.74260 -70.08803 3927 ft 284 kts 247°
2026-04-07 23:16 42.73202 -70.11026 4574 ft 277 kts 237°
2026-04-07 23:16 42.72058 -70.13116 5101 ft 280 kts 236°
2026-04-07 23:16 42.70818 -70.15287 5453 ft 301 kts 235°
2026-04-07 23:16 42.69475 -70.17562 5808 ft 315 kts 234°
2026-04-07 23:17 42.68012 -70.19983 5586 ft 356 kts 233°
2026-04-07 23:17 42.66336 -70.22713 5386 ft 397 kts 233°
2026-04-07 23:17 42.64485 -70.25756 5097 ft 434 kts 233°
2026-04-07 23:17 42.62515 -70.29014 4780 ft 460 kts 233°
2026-04-07 23:18 42.61687 -70.30385 4632 ft 0 kts 233°
2026-04-07 23:18 51.15376 -0.19554 195 ft 0 kts 77°
2026-04-07 23:19 42.38763 -70.96106 1640 ft 3 kts
2026-04-07 23:20 42.27285 -71.04961 1978 ft 310 kts 19°
2026-04-07 23:21 42.27581 -71.04786 1990 ft 312 kts 20°
2026-04-07 23:22 42.28509 -71.04239 2062 ft 302 kts 19°
2026-04-07 23:22 42.30480 -71.03171 1385 ft 305 kts 14°
2026-04-07 23:22 42.32495 -71.02352 761 ft 309 kts 12°
2026-04-07 23:23 42.34584 -71.01443 255 ft 312 kts 15°